ITY1296 LIML-LOWI

Flight info

Callsign ITY1296
Flight time 0h 40m
Altitude 18000
Route NESTI M985 TAGIP T876 EKPIS M726 BRENO/N0432F240 M726 INN/N0426F230 Y703 RTT RTT1B
Aircraft A320/M-SDE3FGHIRWY/LB1

Departure

Time 2026-05-06 01:42
Airport Milano Linate Airport (LIML)

Arrival

Time 2026-05-06 02:22
Airport Innsbruck Airport (LOWI)
Time Latitude Longitude Altitude Speed Heading
2026-05-06 01:17 45.45167 9.27955 362 ft 0 kts 270°
2026-05-06 01:18 45.45167 9.27952 363 ft 0 kts 270°
2026-05-06 01:36 45.45167 9.27932 362 ft 4 kts 270°
2026-05-06 01:36 45.45162 9.27899 364 ft 4 kts 245°
2026-05-06 01:36 45.45127 9.27877 360 ft 5 kts 185°
2026-05-06 01:37 45.45087 9.27880 360 ft 6 kts 173°
2026-05-06 01:37 45.45044 9.27888 364 ft 11 kts 175°
2026-05-06 01:37 45.44927 9.27908 364 ft 19 kts 165°
2026-05-06 01:37 45.44792 9.27945 367 ft 21 kts 175°
2026-05-06 01:38 45.44642 9.27960 365 ft 23 kts 175°
2026-05-06 01:38 45.44477 9.27978 363 ft 25 kts 176°
2026-05-06 01:38 45.44300 9.27997 360 ft 26 kts 176°
2026-05-06 01:38 45.44112 9.28017 367 ft 28 kts 175°
2026-05-06 01:39 45.43914 9.28039 361 ft 29 kts 175°
2026-05-06 01:39 45.43717 9.28060 360 ft 23 kts 175°
2026-05-06 01:39 45.43569 9.28076 363 ft 18 kts 174°
2026-05-06 01:39 45.43475 9.28069 364 ft 11 kts 207°
2026-05-06 01:40 45.43445 9.27983 361 ft 7 kts 265°
2026-05-06 01:40 45.43445 9.27980 361 ft 1 kts 265°
2026-05-06 01:40 45.43441 9.27895 364 ft 10 kts 272°
2026-05-06 01:40 45.43473 9.27826 362 ft 8 kts 328°
2026-05-06 01:41 45.43506 9.27815 362 ft 0 kts 356°
2026-05-06 01:41 45.43562 9.27809 361 ft 38 kts 356°
2026-05-06 01:41 45.44095 9.27752 363 ft 112 kts 355°
2026-05-06 01:41 45.45059 9.27657 454 ft 155 kts 358°
2026-05-06 01:42 45.46127 9.27555 1138 ft 155 kts 356°
2026-05-06 01:42 45.47174 9.27126 1756 ft 160 kts 346°
2026-05-06 01:42 45.47885 9.26756 2098 ft 166 kts 343°
2026-05-06 01:42 45.49460 9.25964 2389 ft 200 kts 344°
2026-05-06 01:43 45.50387 9.25504 2582 ft 217 kts 343°
2026-05-06 01:43 45.51895 9.24751 2981 ft 242 kts 342°
2026-05-06 01:43 45.53565 9.23916 3477 ft 265 kts 341°
2026-05-06 01:43 45.55365 9.23085 4042 ft 278 kts 349°
2026-05-06 01:44 45.57281 9.23242 5004 ft 278 kts 15°
2026-05-06 01:44 45.59155 9.23979 5986 ft 281 kts 12°
2026-05-06 01:44 45.61114 9.24196 6920 ft 284 kts 360°
2026-05-06 01:44 45.63104 9.24085 7817 ft 288 kts 357°
2026-05-06 01:45 45.65107 9.24360 8663 ft 293 kts 18°
2026-05-06 01:45 45.66888 9.25783 9513 ft 297 kts 44°
2026-05-06 01:45 45.68114 9.28140 10295 ft 299 kts 67°
2026-05-06 01:45 45.68947 9.30984 10647 ft 322 kts 70°
2026-05-06 01:46 45.69802 9.34072 10910 ft 345 kts 70°
2026-05-06 01:46 45.70706 9.37381 11139 ft 368 kts 70°
2026-05-06 01:46 45.71657 9.40850 11668 ft 378 kts 70°
2026-05-06 01:46 45.72622 9.44336 12336 ft 384 kts 70°
2026-05-06 01:47 45.73619 9.47923 12927 ft 391 kts 70°
2026-05-06 01:47 45.74632 9.51571 13600 ft 397 kts 70°
2026-05-06 01:47 45.75618 9.55292 14202 ft 402 kts 74°
2026-05-06 01:47 45.76241 9.59217 14792 ft 405 kts 85°
2026-05-06 01:48 45.76485 9.63258 15413 ft 409 kts 89°
2026-05-06 01:48 45.76695 9.67341 16060 ft 413 kts 89°
2026-05-06 01:48 45.76910 9.71454 16613 ft 417 kts 89°
2026-05-06 01:48 45.77129 9.75622 17217 ft 422 kts 89°
2026-05-06 01:49 45.77351 9.79838 17756 ft 427 kts 89°
2026-05-06 01:49 45.77574 9.84098 17932 ft 431 kts 89°
2026-05-06 01:49 45.77798 9.88460 17963 ft 449 kts 89°
2026-05-06 01:49 45.78031 9.93003 17962 ft 462 kts 89°
2026-05-06 01:50 45.78266 9.97620 17963 ft 465 kts 89°
2026-05-06 01:50 45.78500 10.02249 17965 ft 467 kts 89°
2026-05-06 01:50 45.78731 10.06896 17961 ft 466 kts 89°
2026-05-06 01:50 45.78961 10.11530 17959 ft 466 kts 89°
2026-05-06 01:51 45.79178 10.15912 17957 ft 466 kts 89°
2026-05-06 01:51 45.79400 10.20542 17967 ft 466 kts 89°
2026-05-06 01:51 45.79616 10.25182 17967 ft 466 kts 89°
2026-05-06 01:51 45.79825 10.29825 17961 ft 467 kts 89°
2026-05-06 01:52 45.80033 10.34469 17963 ft 468 kts 89°
2026-05-06 01:52 45.80508 10.39096 17966 ft 472 kts 79°
2026-05-06 01:52 45.81496 10.43594 17970 ft 475 kts 70°
2026-05-06 01:52 45.82989 10.47835 17974 ft 477 kts 59°
2026-05-06 01:53 45.84880 10.51761 17984 ft 478 kts 55°
2026-05-06 01:53 45.86810 10.55636 17983 ft 478 kts 55°
2026-05-06 01:53 45.88730 10.59520 17989 ft 477 kts 55°
2026-05-06 01:53 45.90651 10.63408 17993 ft 477 kts 54°
2026-05-06 01:54 45.92813 10.67028 18002 ft 477 kts 45°
2026-05-06 01:54 45.95318 10.70132 17995 ft 475 kts 35°
2026-05-06 01:54 45.98112 10.72647 17979 ft 473 kts 26°
2026-05-06 01:54 46.00984 10.74835 17955 ft 473 kts 26°
2026-05-06 01:55 46.03924 10.77088 17964 ft 472 kts 26°
2026-05-06 01:55 46.06785 10.79287 17991 ft 472 kts 26°
2026-05-06 01:55 46.09675 10.81518 18012 ft 471 kts 26°
2026-05-06 01:55 46.12564 10.83754 18029 ft 471 kts 26°
2026-05-06 01:56 46.15446 10.85981 18018 ft 470 kts 26°
2026-05-06 01:56 46.18327 10.88204 18041 ft 469 kts 26°
2026-05-06 01:56 46.21209 10.90431 18025 ft 469 kts 26°
2026-05-06 01:56 46.24084 10.92656 18029 ft 468 kts 26°
2026-05-06 01:57 46.26951 10.94883 18031 ft 468 kts 26°
2026-05-06 01:57 46.29817 10.97114 18031 ft 468 kts 26°
2026-05-06 01:57 46.32687 10.99350 18030 ft 468 kts 27°
2026-05-06 01:57 46.35551 11.01584 18032 ft 468 kts 26°
2026-05-06 01:58 46.38420 11.03823 18028 ft 468 kts 26°
2026-05-06 01:58 46.41288 11.06062 17978 ft 468 kts 26°
2026-05-06 01:58 46.44159 11.08305 17984 ft 468 kts 26°
2026-05-06 01:58 46.47025 11.10548 17984 ft 469 kts 26°
2026-05-06 01:59 46.49899 11.12801 17989 ft 469 kts 26°
2026-05-06 01:59 46.52768 11.15053 17985 ft 469 kts 26°
2026-05-06 01:59 46.55635 11.17307 17984 ft 469 kts 26°
2026-05-06 01:59 46.58509 11.19568 17985 ft 469 kts 26°
2026-05-06 02:00 46.61374 11.21821 17979 ft 469 kts 26°
2026-05-06 02:00 46.64248 11.24086 17977 ft 468 kts 26°
2026-05-06 02:00 46.67105 11.26343 17975 ft 468 kts 27°
2026-05-06 02:00 46.69967 11.28605 17971 ft 467 kts 26°
2026-05-06 02:01 46.72822 11.30864 17971 ft 467 kts 27°
2026-05-06 02:01 46.75687 11.33088 17966 ft 466 kts 23°
2026-05-06 02:01 46.78696 11.34805 17965 ft 463 kts 14°
2026-05-06 02:01 46.81828 11.35819 17971 ft 460 kts
2026-05-06 02:02 46.85001 11.36226 17970 ft 457 kts
2026-05-06 02:02 46.88174 11.36557 17971 ft 458 kts
2026-05-06 02:02 46.91354 11.36903 17965 ft 458 kts
2026-05-06 02:02 46.94493 11.37255 17961 ft 457 kts
2026-05-06 02:03 46.97700 11.37622 17962 ft 457 kts
2026-05-06 02:03 47.00868 11.37978 17912 ft 456 kts
2026-05-06 02:03 47.03995 11.38308 17653 ft 455 kts
2026-05-06 02:03 47.07141 11.38627 17376 ft 452 kts
2026-05-06 02:04 47.10269 11.38934 17102 ft 450 kts
2026-05-06 02:04 47.13384 11.39239 16843 ft 448 kts
2026-05-06 02:04 47.16470 11.39680 16238 ft 446 kts
2026-05-06 02:04 47.19429 11.40977 15631 ft 437 kts 21°
2026-05-06 02:05 47.22014 11.43015 15391 ft 407 kts 32°
2026-05-06 02:05 47.24157 11.45500 15259 ft 378 kts 43°
2026-05-06 02:05 47.25856 11.48273 15134 ft 353 kts 53°
2026-05-06 02:05 47.27146 11.51207 14974 ft 331 kts 61°
2026-05-06 02:06 47.28257 11.54150 14178 ft 333 kts 61°
2026-05-06 02:06 47.29405 11.57200 12921 ft 346 kts 61°
2026-05-06 02:06 47.30586 11.60355 11725 ft 354 kts 62°
2026-05-06 02:06 47.31745 11.63458 11359 ft 334 kts 62°
2026-05-06 02:07 47.32828 11.66360 11123 ft 314 kts 62°
2026-05-06 02:07 47.33863 11.69133 10815 ft 305 kts 62°
2026-05-06 02:07 47.34891 11.71888 10744 ft 308 kts 62°
2026-05-06 02:07 47.35919 11.74649 10626 ft 304 kts 62°
2026-05-06 02:08 47.36919 11.77336 10459 ft 295 kts 62°
2026-05-06 02:08 47.37904 11.79992 10339 ft 294 kts 62°
2026-05-06 02:08 47.38876 11.82621 10257 ft 289 kts 62°
2026-05-06 02:08 47.39821 11.85174 10157 ft 278 kts 62°
2026-05-06 02:09 47.40732 11.87641 10024 ft 269 kts 62°
2026-05-06 02:09 47.41591 11.90052 9799 ft 263 kts 68°
2026-05-06 02:09 47.42244 11.92602 9382 ft 265 kts 68°
2026-05-06 02:09 47.42741 11.95192 9051 ft 261 kts 86°
2026-05-06 02:10 47.43052 11.97765 8955 ft 248 kts 67°
2026-05-06 02:10 47.44053 11.99703 8977 ft 232 kts 33°
2026-05-06 02:10 47.45475 12.00466 8992 ft 210 kts 359°
2026-05-06 02:10 47.46814 11.99914 8978 ft 197 kts 323°
2026-05-06 02:11 47.47667 11.98417 8975 ft 191 kts 289°
2026-05-06 02:11 47.47830 11.96521 8978 ft 186 kts 258°
2026-05-06 02:11 47.47309 11.94810 8980 ft 184 kts 229°
2026-05-06 02:11 47.46264 11.93751 8980 ft 185 kts 199°
2026-05-06 02:12 47.44976 11.93591 8979 ft 188 kts 180°
2026-05-06 02:12 47.43729 11.93221 8951 ft 183 kts 218°
2026-05-06 02:12 47.42970 11.91763 9224 ft 185 kts 238°
2026-05-06 02:12 47.42271 11.90164 9421 ft 186 kts 232°
2026-05-06 02:13 47.41447 11.88697 9491 ft 186 kts 229°
2026-05-06 02:13 47.40589 11.87279 9489 ft 185 kts 228°
2026-05-06 02:13 47.39727 11.85867 9488 ft 185 kts 228°
2026-05-06 02:13 47.38866 11.84446 9490 ft 187 kts 227°
2026-05-06 02:14 47.38009 11.83020 9482 ft 184 kts 228°
2026-05-06 02:14 47.37362 11.81376 9488 ft 187 kts 246°
2026-05-06 02:14 47.36895 11.79687 9414 ft 171 kts 246°
2026-05-06 02:14 47.36431 11.78014 8715 ft 182 kts 245°
2026-05-06 02:15 47.35976 11.76360 8440 ft 163 kts 244°
2026-05-06 02:15 47.35571 11.74883 8220 ft 149 kts 244°
2026-05-06 02:15 47.35185 11.73492 8007 ft 146 kts 244°
2026-05-06 02:15 47.34800 11.72112 7793 ft 144 kts 244°
2026-05-06 02:16 47.34416 11.70733 7566 ft 146 kts 244°
2026-05-06 02:16 47.34034 11.69362 7356 ft 145 kts 245°
2026-05-06 02:16 47.33654 11.67997 7136 ft 144 kts 244°
2026-05-06 02:16 47.33270 11.66624 6915 ft 145 kts 244°
2026-05-06 02:17 47.32885 11.65245 6693 ft 146 kts 245°
2026-05-06 02:17 47.32501 11.63870 6461 ft 147 kts 245°
2026-05-06 02:17 47.32109 11.62461 6235 ft 147 kts 246°
2026-05-06 02:17 47.31725 11.61084 6006 ft 147 kts 245°
2026-05-06 02:18 47.31332 11.59677 5762 ft 146 kts 246°
2026-05-06 02:18 47.30952 11.58312 5529 ft 146 kts 246°
2026-05-06 02:18 47.30558 11.56912 5276 ft 147 kts 246°
2026-05-06 02:18 47.30156 11.55526 4887 ft 147 kts 246°
2026-05-06 02:19 47.29746 11.54164 4522 ft 147 kts 246°
2026-05-06 02:19 47.29346 11.52763 4226 ft 146 kts 248°
2026-05-06 02:19 47.28974 11.51404 3931 ft 145 kts 247°
2026-05-06 02:19 47.28594 11.50035 3603 ft 144 kts 246°
2026-05-06 02:20 47.27848 11.47325 3037 ft 141 kts 247°
2026-05-06 02:20 47.27486 11.45983 2874 ft 141 kts 248°
2026-05-06 02:20 47.27167 11.44625 2830 ft 140 kts 254°
2026-05-06 02:21 47.26986 11.43215 2816 ft 140 kts 260°
2026-05-06 02:21 47.26841 11.41795 2789 ft 140 kts 259°
2026-05-06 02:21 47.26684 11.40382 2611 ft 139 kts 260°
2026-05-06 02:21 47.26530 11.38981 2503 ft 139 kts 260°
2026-05-06 02:22 47.26370 11.37580 2251 ft 138 kts 261°
2026-05-06 02:22 47.26216 11.36196 2032 ft 137 kts 260°
2026-05-06 02:22 47.26069 11.34840 1902 ft 124 kts 261°
2026-05-06 02:22 47.25978 11.34003 1897 ft 39 kts 261°
2026-05-06 02:23 47.25962 11.33851 1899 ft 11 kts 261°
2026-05-06 02:23 47.25948 11.33737 1895 ft 12 kts 253°
2026-05-06 02:23 47.25906 11.33701 1894 ft 4 kts 160°
2026-05-06 02:23 47.25888 11.33725 1900 ft 3 kts 131°
2026-05-06 02:24 47.25854 11.33789 1900 ft 16 kts 126°
2026-05-06 02:24 47.25799 11.33903 1900 ft 12 kts 121°
2026-05-06 02:24 47.25776 11.34007 1899 ft 10 kts 97°
2026-05-06 02:24 47.25780 11.34143 1897 ft 18 kts 83°
2026-05-06 02:25 47.25802 11.34343 1904 ft 21 kts 81°
2026-05-06 02:25 47.25827 11.34552 1904 ft 21 kts 81°
2026-05-06 02:25 47.25846 11.34747 1904 ft 19 kts 79°
2026-05-06 02:25 47.25862 11.34902 1904 ft 8 kts 82°
2026-05-06 02:26 47.25867 11.34960 1899 ft 5 kts 91°
2026-05-06 02:26 47.25846 11.34983 1904 ft 3 kts 170°
2026-05-06 02:26 47.25827 11.34986 1901 ft 2 kts 172°
2026-05-06 02:26 47.25814 11.34989 1899 ft 1 kts 171°
2026-05-06 02:27 47.25809 11.34990 1897 ft 0 kts 169°